{"data":{"norad_id":60077,"epoch":"2026-05-25T02:30:07.917120Z","epoch_age_seconds":56132,"freshness":"FRESH","line1":"1 60077U 24113U   26145.10425830  .00000598  00000+0  28836-4 0  9994","line2":"2 60077  53.1610   3.1668 0001097  93.6083 266.5045 15.34398040108945","mean_motion":15.3439804,"eccentricity":0.0001097,"inclination_deg":53.161,"raan_deg":3.1668,"arg_perigee_deg":93.6083,"mean_anomaly_deg":266.5045,"bstar":2.8836e-5,"rev_number":10894,"period_min":93.847877960011,"perigee_km":461.95862493294,"apogee_km":463.45950655977,"semimajor_km":6840.8460657464,"source":"CELESTRAK","updated_at":"2026-05-25T13:38:19.159376Z"}}